User: anonymous   Login
Location: Homewood
(41.1836°S, 175.9581°E)
Time: 00:46:10
(UTC+00:00)
Language:

SMAP - Orbit

View from above orbital plane
View from above orbital plane
View from above satellite
View from above satellite

Ground track
Ground track

The orbit data is extracted from the following two-line orbital elements,

1 40376U 15003A   24175.59238097  .00000712  00000-0  14703-3 0  9999
2 40376  98.1271 181.8933 0001432  83.6259 276.5106 14.63345870501796
Epoch (UTC): 23 June 2024 14:13:01
Eccentricity: 0.0001432
inclination: 98.1271°
perigee height: 681 km
apogee height: 683 km
right ascension of ascending node: 181.8933°
argument of perigee: 83.6259°
revolutions per day: 14.63345870
mean anomaly at epoch: 276.5106°
orbit number at epoch: 50179

The dashed part of the orbit path shows where the satellite is in the earth's shadow,  

DLR